Find Starlink 34664

NORAD ID: 64806 Int'l Des: 2025-150 Owner: SPXS Country: US Constellation: starlink operational
LEOCIRCULAR

当前视图

正在加载3D地球...

About Starlink 34664

Starlink 34664 (NORAD 64806) is a starlink constellation satellite (v2 mini) launched Jul 16, 2025 by SPXS of US. It operates in LEO, CIRCULAR orbit with a mass of 575.00 kg.

即将过境

Passes for default location (London). Set your location on the main map for personalized predictions.

高度历史

Loading altitude history...

两行轨道根数

1 64806U 25150S 26262.57470007 .00002309 00000-0 20119-3 0 9995
2 64806 70.0024 5.4088 0003250 268.6961 91.3826 14.98335213 65562
Epoch: Sep 19, 2026 • Age: 27 hours

当前状态

高度 574.2 km
远地点 / 近地点 N/A
速度 7.57 km/s
星下点 8.26°N, 109.91°E
发射日期 Jul 16, 2025
运行时间 1.1 years
类型 internet

技术详情

分类 Payload
质量 575.00 kg
干质量 530.00 kg
长度 0.30 m
跨度 29.00 m
形状 ? Box + pan
制造商 SPXS
平台类型 Starlink V2MO
阶段状态 In Orbit
所有者/国家 SPXS/US

Most Searched